This demonstration page uses our WeatherBlox Daily Observations layout. Learn more.

Left ArrowRight Arrow

Hourly Observations for August 3, 2019

Temp ( °F °C ) Dew Point ( °F °C ) Humidity (%) Winds ( mph kmh ) Pressure ( in mb ) Visibility ( mi km ) Precip ( " mm )
12:56 am 00:56 Mostly Cloudy 73 23 64 18 74 74 ENE 3 6 30.08 1019 10 16 0.00 0.00
1:56 am 01:56 Mostly Cloudy 72 22 64 18 78 78 ENE 5 7 30.07 1018 10 16 0.00 0.00
2:56 am 02:56 Mostly Cloudy 72 22 64 18 78 78 ESE 2 4 30.06 1018 10 16 0.00 0.00
3:56 am 03:56 Cloudy 72 22 64 18 78 78 E 2 4 30.06 1018 10 16 0.00 0.00
4:56 am 04:56 Mostly Cloudy 72 22 64 18 78 78 E 3 6 30.06 1018 10 16 0.00 0.00
5:56 am 05:56 Mostly Cloudy 70 21 64 18 83 83 NNE 2 4 30.06 1018 10 16 0.00 0.00
6:56 am 06:56 Partly Cloudy 70 21 64 18 83 83 NNE 2 4 30.07 1018 10 16 0.00 0.00
7:56 am 07:56 Mostly Cloudy 70 21 64 18 83 83 Calm 30.07 1018 10 16 0.00 0.00
8:56 am 08:56 Sunny 75 24 64 18 69 69 Calm 30.08 1019 10 16 0.00 0.00
9:56 am 09:56 Sunny 77 25 64 18 65 65 Calm 30.07 1018 10 16 0.00 0.00
10:56 am 10:56 Sunny 81 27 64 18 58 58 SE 5 7 30.07 1018 10 16 0.00 0.00
11:56 am 11:56 Partly Cloudy 81 27 63 17 54 54 SE 5 7 30.06 1018 10 16 0.00 0.00
12:56 pm 12:56 Partly Cloudy 82 28 63 17 51 51 ESE 7 11 30.06 1018 10 16 0.00 0.00
1:56 pm 13:56 Partly Cloudy 82 28 63 17 51 51 E 3 6 30.05 1018 10 16 0.00 0.00
2:56 pm 14:56 Partly Cloudy 84 29 61 16 45 45 E 7 11 30.05 1018 10 16 0.00 0.00
3:56 pm 15:56 Mostly Cloudy 84 29 59 15 43 43 N 3 6 30.04 1017 10 16 0.00 0.00
4:56 pm 16:56 Partly Cloudy 84 29 59 15 43 43 SE 5 7 30.02 1017 10 16 0.00 0.00
5:56 pm 17:56 Partly Cloudy 84 29 61 16 45 45 ESE 8 13 30.01 1016 10 16 0.00 0.00
6:56 pm 18:56 Mostly Sunny 82 28 61 16 48 48 ESE 10 17 29.99 1016 N/A 0.00 0.00
7:56 pm 19:56 Sunny N/A N/A N/A SE 9 15 N/A 10 16 0.00 0.00
8:56 pm 20:56 Mostly Clear 81 27 64 18 58 58 ESE 6 9 30.00 1016 10 16 0.00 0.00
9:56 pm 21:56 Mostly Clear 79 26 66 19 65 65 E 6 9 30.03 1017 10 16 0.00 0.00
10:56 pm 22:56 Mostly Clear 77 25 64 18 65 65 SE 5 7 30.04 1017 10 16 0.00 0.00
11:56 pm 23:56 Mostly Clear 75 24 66 19 74 74 Calm 30.04 1017 10 16 0.00 0.00

Powered by AerisWeather